[[{"header":{"parameterUnit":"m.s-1","parameterCategory":2,"la1":30.2991,"la2":30.254,"lo1":-89.0895,"lo2":-89.0444,"dy":0.0017,"dx":0.0017,"nx":28,"ny":28,"refTime":"2024-12-14T03:00:00:Z","depth":"0","parameterNumber":2,"parameterNumberName":"U-component_of_CURRENTS"},"data":[0,0,0,0,0,0,0,0,0,0,0,0,0,0,0,0,0,0,0,0,0,0,0,0,0,0,0,0,0,0,0,0,0,0,0,0,0,0,0,0,0,0,0,0,0,0,0,0,0,0,0,0,0,0,0,0,0,0,0.2499,0.25,0,0.2518,0.2518,0.2517,0.2447,0.2446,0.2444,0.2443,0.2376,0.2375,0.2375,0,0,0,0,0,0,0,0,0,0,0,0,0,0.2485,0.2484,0.2499,0.25,0.2501,0.2518,0.2518,0.2517,0.2447,0.2446,0.2444,0.2442,0.2376,0.2375,0.2375,0,0,0,0,0,0,0,0,0,0,0,0,0,0.2488,0.2484,0.2499,0.2475,0.2473,0.2518,0.2518,0.2517,0.2448,0.2446,0.2444,0.2442,0.2376,0.2375,0.2375,0.241,0,0,0.2372,0.2372,0,0,0,0,0,0,0,0,0.2488,0.2487,0.2477,0.2476,0.2475,0.2485,0.2488,0.248,0.2448,0.2449,0.2443,0.2441,0.2411,0.2408,0.2405,0.2406,0.2403,0.2372,0.2372,0.2371,0.2371,0,0,0,0,0,0,0,0.2487,0.2487,0.2498,0.2479,0.2477,0.2491,0.2488,0.2486,0.2433,0.2448,0.2445,0.2461,0.2409,0.2406,0.2403,0.2402,0.2372,0.2371,0.2371,0.237,0.2425,0.2427,0,0,0,0,0,0,0.25,0.2486,0.2498,0.25,0.2486,0.2493,0.2489,0.2477,0.2435,0.243,0.2463,0.2458,0.2408,0.2404,0.24,0.2428,0.2371,0.237,0.237,0.2424,0.2426,0.2428,0,0,0,0,0,0,0.2499,0.2499,0.2497,0.2502,0.2503,0.2496,0.2483,0.2479,0.2481,0.2448,0.2439,0.247,0.2407,0.2401,0.2404,0.2425,0.237,0.2369,0.2421,0.2424,0.2427,0.2491,0,0,0,0,0,0,0.2498,0.2498,0.2502,0.2502,0.2504,0.2532,0.2486,0.2481,0.2497,0.2491,0.2452,0.2443,0.2405,0.2406,0.2403,0.2423,0.2369,0.2419,0.2423,0.2426,0.2487,0.2496,0.2504,0,0,0,0,0,0.2496,0.2509,0.2501,0.2504,0.2505,0.2534,0.2536,0.2519,0.25,0.251,0.2482,0.2445,0.2427,0.2407,0.2403,0.2423,0.2417,0.2421,0.2426,0.2483,0.2494,0.2504,0,0,0,0,0,0,0.2498,0.2504,0.2495,0.2505,0.2525,0.2525,0.2542,0.2536,0.2524,0.2512,0.2469,0.246,0.2472,0.245,0.2429,0.2454,0.2417,0.2421,0.2462,0.2472,0.2481,0.2499,0.2368,0,0,0,0,0,0.2506,0.2517,0.2527,0.2539,0.2549,0.255,0.2564,0.2554,0.2548,0.254,0.2513,0.2493,0.2491,0.2482,0.2473,0.249,0.2502,0.2503,0.2512,0.2519,0.2535,0.2583,0.2598,0.2442,0.2442,0.2442,0,0,0.2512,0.252,0.2525,0.2543,0.255,0.2573,0.255,0.2575,0.2588,0.2538,0.2538,0.2525,0.2506,0.2516,0.252,0.2496,0.2573,0.2525,0.2531,0.2543,0.259,0.2605,0.2618,0.2445,0.2445,0.2444,0,0,0.2537,0.2534,0.2553,0.2574,0.2603,0.2604,0.2618,0.2622,0.2615,0.2633,0.2598,0.2606,0.2593,0.2583,0.2578,0.2639,0.2623,0.2634,0.2683,0.273,0.2743,0.2755,0.2799,0.2814,0.2631,0.2631,0.2631,0,0.2545,0.2558,0.2568,0.2597,0.2615,0.262,0.2644,0.2653,0.2657,0.2659,0.264,0.2652,0.2629,0.2657,0.267,0.2658,0.2682,0.2639,0.2741,0.2753,0.2764,0.2806,0.2822,0.2635,0.2634,0.2634,0.2633,0,0.2587,0.2598,0.2616,0.2642,0.2667,0.2692,0.2708,0.2722,0.2719,0.2723,0.2753,0.274,0.2742,0.2744,0.2722,0.2786,0.2779,0.2751,0.2712,0.2783,0.2823,0.2839,0.264,0.2639,0.2637,0.2637,0,0,0.2586,0.2632,0.2636,0.2651,0.2687,0.2711,0.2741,0.2768,0.2793,0.2804,0.2836,0.2848,0.2844,0.2842,0.2825,0.2867,0.2959,0.2844,0.2845,0.2885,0.3073,0.2993,0.3001,0.295,0.2953,0.2955,0.3072,0,0.2607,0.2654,0.2674,0.2717,0.2736,0.2755,0.2787,0.2817,0.2835,0.2867,0.288,0.2904,0.2881,0.2887,0.293,0.2949,0.3002,0.2931,0.3002,0.3004,0.2921,0.3017,0.2751,0.2827,0.3087,0.309,0.3091,0,0.2633,0.2659,0.2696,0.2741,0.2753,0.2786,0.2833,0.2866,0.2915,0.293,0.2966,0.2969,0.3026,0.2997,0.3095,0.3051,0.3077,0.3098,0.3102,0.3016,0.2952,0.2797,0.2844,0.2701,0.3115,0.3113,0.3111,0,0.262,0.2672,0.2696,0.2714,0.2771,0.2794,0.2827,0.288,0.2905,0.2972,0.3003,0.3061,0.3099,0.3149,0.3188,0.3147,0.3307,0.3244,0.3206,0.32,0.2982,0.2952,0.2892,0.3336,0.3336,0.3335,0.3335,0,0.2627,0.2647,0.2695,0.2713,0.2746,0.2798,0.2838,0.2884,0.2947,0.2983,0.3035,0.3081,0.3144,0.3221,0.324,0.3285,0.3351,0.3246,0.3236,0.2997,0.2969,0.2838,0.2815,0.334,0.3339,0.3338,0.3337,0,0.2604,0.2635,0.2664,0.2722,0.2738,0.2765,0.2822,0.2857,0.2936,0.2991,0.3012,0.312,0.322,0.3292,0.3389,0.3348,0.326,0.3394,0.3114,0.3067,0.2834,0.2825,0.2744,0.2645,0.3344,0.3343,0.3342,0,0.2598,0.2612,0.2654,0.2665,0.2688,0.2727,0.2751,0.2828,0.2866,0.3,0.3029,0.3158,0.3219,0.3354,0.3311,0.3345,0.3247,0.3113,0.2974,0.2814,0.2798,0.2719,0.2636,0.2719,0.2713,0.2708,0.2704,0,0.2582,0.2593,0.2613,0.263,0.2652,0.2668,0.2717,0.2744,0.2842,0.291,0.3017,0.3084,0.3178,0.3091,0.3136,0.3097,0.2871,0.3012,0.2907,0.237,0.2219,0.2118,0.2668,0.266,0.2665,0.2668,0.267,0.2672,0.2562,0.256,0.2582,0.2591,0.2608,0.2617,0.2602,0.2666,0.272,0.277,0.2905,0.292,0.2838,0.2841,0.2823,0.2506,0.2618,0.2313,0.2342,0.2299,0.211,0.258,0.252,0.2523,0.2526,0.2528,0.2531,0,0.2528,0.2531,0.2543,0.2538,0.2522,0.2549,0.2575,0.2538,0.2559,0.2608,0.2653,0.2503,0.2359,0.2269,0.1975,0.183,0.1717,0.1735,0.1525,0.1499,0.194,0.1812,0.1517,0.1518,0.1518,0.1518,0.1518,0.1518,0.2509,0.2497,0.2495,0.245,0.2441,0.2363,0.2351,0.2319,0.2318,0.2207,0.2088,0.2067,0.1925,0.1625,0.1335,0.1278,0.1158,0.1052,0.1169,0.1415,0.1468,0.152,0.139,0.1012,0.1011,0.0532,0.0528,0.0526]},{"header":{"parameterUnit":"m.s-1","parameterCategory":2,"la1":30.2991,"la2":30.254,"lo1":-89.0895,"lo2":-89.0444,"dy":0.0017,"dx":0.0017,"nx":28,"ny":28,"refTime":"2024-12-14T03:00:00:Z","depth":"0","parameterNumber":3,"parameterNumberName":"V-component_of_CURRENTS"},"data":[0,0,0,0,0,0,0,0,0,0,0,0,0,0,0,0,0,0,0,0,0,0,0,0,0,0,0,0,0,0,0,0,0,0,0,0,0,0,0,0,0,0,0,0,0,0,0,0,0,0,0,0,0,0,0,0,0,0,-0.019,-0.019,0,-0.0236,-0.0236,-0.0237,-0.0263,-0.0263,-0.0263,-0.0263,-0.0253,-0.0252,-0.0252,0,0,0,0,0,0,0,0,0,0,0,0,0,-0.0165,-0.0165,-0.019,-0.0191,-0.0191,-0.0236,-0.0236,-0.0237,-0.0262,-0.0263,-0.0263,-0.0263,-0.0253,-0.0252,-0.0252,0,0,0,0,0,0,0,0,0,0,0,0,0,-0.0189,-0.0165,-0.019,-0.021,-0.0213,-0.0236,-0.0236,-0.0237,-0.0262,-0.0263,-0.0263,-0.0263,-0.0253,-0.0253,-0.0252,-0.0242,0,0,-0.025,-0.025,0,0,0,0,0,0,0,0,-0.0187,-0.0189,-0.0207,-0.0209,-0.0212,-0.0245,-0.0224,-0.0236,-0.0262,-0.0242,-0.0263,-0.0263,-0.0246,-0.0246,-0.0253,-0.0242,-0.0241,-0.025,-0.0249,-0.0249,-0.0249,0,0,0,0,0,0,0,-0.0185,-0.0188,-0.0207,-0.0207,-0.021,-0.0231,-0.0234,-0.0227,-0.024,-0.0244,-0.0246,-0.0253,-0.0246,-0.0253,-0.0252,-0.0241,-0.025,-0.0249,-0.0249,-0.0249,-0.0245,-0.0245,0,0,0,0,0,0,-0.018,-0.0186,-0.0205,-0.0208,-0.0201,-0.0231,-0.0235,-0.0233,-0.0241,-0.0244,-0.0253,-0.0254,-0.0254,-0.0253,-0.0252,-0.0262,-0.0249,-0.0248,-0.0248,-0.0245,-0.0245,-0.0245,0,0,0,0,0,0,-0.0179,-0.0181,-0.0204,-0.02,-0.0204,-0.0231,-0.0229,-0.0234,-0.024,-0.0249,-0.025,-0.0254,-0.0254,-0.0253,-0.0251,-0.0261,-0.0248,-0.0248,-0.0244,-0.0245,-0.0245,-0.0269,0,0,0,0,0,0,-0.0178,-0.018,-0.0174,-0.0199,-0.0204,-0.0218,-0.0229,-0.0234,-0.0244,-0.0246,-0.025,-0.025,-0.0255,-0.0252,-0.025,-0.026,-0.0247,-0.0244,-0.0244,-0.0245,-0.0268,-0.027,-0.0272,0,0,0,0,0,-0.0177,-0.0175,-0.0173,-0.0175,-0.0196,-0.0218,-0.0223,-0.0242,-0.0244,-0.0248,-0.0253,-0.025,-0.0254,-0.0251,-0.0249,-0.0259,-0.0244,-0.0244,-0.0245,-0.0267,-0.027,-0.0272,0,0,0,0,0,0,-0.0162,-0.0178,-0.0177,-0.0178,-0.0194,-0.0223,-0.0235,-0.0238,-0.0246,-0.0248,-0.0249,-0.0249,-0.0254,-0.0248,-0.0245,-0.026,-0.025,-0.025,-0.0267,-0.027,-0.0272,-0.0253,-0.0246,0,0,0,0,0,-0.0154,-0.0157,-0.0173,-0.0176,-0.0186,-0.0205,-0.0215,-0.0227,-0.0239,-0.0244,-0.0245,-0.0248,-0.0255,-0.0255,-0.0258,-0.0259,-0.0246,-0.0265,-0.0268,-0.0269,-0.0253,-0.0266,-0.0267,-0.0247,-0.0247,-0.0247,0,0,-0.0153,-0.0159,-0.0163,-0.0173,-0.0192,-0.0198,-0.0213,-0.0233,-0.0231,-0.0239,-0.0238,-0.0253,-0.0256,-0.0268,-0.0269,-0.0264,-0.0265,-0.027,-0.0272,-0.0254,-0.0267,-0.0268,-0.027,-0.0248,-0.0248,-0.0248,0,0,-0.0152,-0.0156,-0.0158,-0.017,-0.0191,-0.0199,-0.02,-0.0222,-0.0229,-0.0228,-0.0243,-0.0264,-0.0257,-0.0279,-0.0284,-0.0295,-0.0277,-0.0294,-0.029,-0.0303,-0.0305,-0.0306,-0.028,-0.0278,-0.0296,-0.0296,-0.0296,0,-0.0145,-0.0147,-0.0163,-0.0168,-0.0179,-0.0194,-0.0198,-0.0204,-0.0218,-0.022,-0.0227,-0.0249,-0.0264,-0.0283,-0.0296,-0.0301,-0.0285,-0.0283,-0.0306,-0.0308,-0.0308,-0.0281,-0.0279,-0.0297,-0.0297,-0.0297,-0.0297,0,-0.0147,-0.0148,-0.0158,-0.016,-0.0168,-0.0183,-0.0191,-0.0192,-0.0197,-0.0203,-0.0221,-0.0253,-0.0262,-0.0285,-0.0292,-0.0312,-0.029,-0.031,-0.03,-0.0312,-0.0282,-0.028,-0.0299,-0.0298,-0.0298,-0.0298,0,0,-0.0131,-0.0153,-0.0155,-0.0149,-0.0169,-0.017,-0.0171,-0.0173,-0.0159,-0.0189,-0.0181,-0.0232,-0.0249,-0.0256,-0.0286,-0.0308,-0.0313,-0.0307,-0.0307,-0.0278,-0.0305,-0.027,-0.0263,-0.0337,-0.0337,-0.0337,-0.0277,0,-0.0126,-0.0125,-0.0143,-0.0136,-0.0132,-0.0151,-0.0143,-0.0145,-0.0146,-0.0138,-0.0188,-0.0194,-0.0237,-0.0248,-0.0279,-0.0299,-0.0309,-0.0325,-0.0297,-0.0295,-0.0263,-0.0261,-0.0193,-0.0132,-0.0274,-0.0274,-0.0274,0,-0.0116,-0.0112,-0.0108,-0.0106,-0.0109,-0.0101,-0.0086,-0.0084,-0.0086,-0.0091,-0.0117,-0.0139,-0.0175,-0.0213,-0.025,-0.0253,-0.0272,-0.0295,-0.0293,-0.0247,-0.0257,-0.0145,-0.0122,-0.0186,-0.027,-0.027,-0.0271,0,-0.0075,-0.0086,-0.0076,-0.008,-0.008,-0.0073,-0.0068,-0.0064,-0.0046,-0.0055,-0.0038,-0.0091,-0.0094,-0.0147,-0.0185,-0.0215,-0.0205,-0.0256,-0.0239,-0.0236,-0.0163,-0.0153,-0.0196,-0.0278,-0.0278,-0.0278,-0.0278,0,-0.0058,-0.0051,-0.0051,-0.0041,-0.0013,-0.003,0.0004,0.0002,0.0014,0.0055,-0.0005,0.0029,-0.0078,-0.0083,-0.0145,-0.0159,-0.017,-0.022,-0.0221,-0.0167,-0.0159,-0.02,-0.0251,-0.0276,-0.0276,-0.0277,-0.0277,0,-0.0027,-0.0034,-0.001,0.0001,0.0011,0.0035,0.0059,0.0089,0.009,0.0147,0.0148,0.0134,0.0136,0.0053,-0.0007,-0.0081,-0.0144,-0.0127,-0.0034,-0.0026,-0.01,-0.0154,-0.017,-0.0225,-0.0108,-0.0107,-0.0106,0,-0.0016,0.0003,0.0034,0.0061,0.0066,0.0099,0.0129,0.0132,0.0171,0.0232,0.0271,0.0288,0.035,0.0285,0.0159,0.008,-0.0045,0.0039,-0.0031,-0.0077,-0.014,-0.019,-0.0241,0.0066,0.0069,0.007,0.0072,0,0.0017,0.003,0.0051,0.0108,0.0149,0.0192,0.0238,0.0287,0.0315,0.0396,0.0505,0.0567,0.0527,0.0497,0.0363,0.0275,0.0001,0.0074,-0.0006,-0.0026,-0.0048,-0.0109,0.002,0.0089,0.0087,0.0086,0.0085,0.0084,0.0046,0.0067,0.0104,0.0152,0.0209,0.0285,0.0344,0.0427,0.0541,0.0688,0.0716,0.0871,0.0756,0.061,0.0474,0.0219,0.0155,0.0124,0.0062,0.0016,-0.0045,0.014,0.0215,0.0214,0.0213,0.0213,0.0212,0,0.0077,0.0093,0.0144,0.0211,0.0282,0.0303,0.0415,0.0503,0.068,0.0862,0.1006,0.1074,0.0979,0.0748,0.0428,0.0249,0.0121,0.0118,0.0053,-0.0006,0.0151,0.015,0.0254,0.0254,0.0254,0.0254,0.0254,0.0254,0.0088,0.0128,0.0146,0.0256,0.0316,0.0429,0.0508,0.0674,0.083,0.1081,0.1215,0.1291,0.11,0.0633,0.0288,0.0187,-0.0004,0.0002,-0.0146,-0.0038,-0.0043,-0.0048,-0.0063,-0.0005,-0.0005,-0.0267,-0.0269,-0.0271]}],[{"header":{"parameterUnit":"m.s-1","parameterCategory":2,"la1":30.2991,"la2":30.254,"lo1":-89.0895,"lo2":-89.0444,"dy":0.0017,"dx":0.0017,"nx":28,"ny":28,"refTime":"2024-12-14T03:00:00:Z","depth":"2","parameterNumber":2,"parameterNumberName":"U-component_of_CURRENTS"},"data":[0,0,0,0,0,0,0,0,0,0,0,0,0,0,0,0,0,0,0,0,0,0,0,0,0,0,0,0,0,0,0,0,0,0,0,0,0,0,0,0,0,0,0,0,0,0,0,0,0,0,0,0,0,0,0,0,0,0,0.217,0.217,0,0.2147,0.2146,0.2146,0.2139,0.2139,0.214,0.214,0.2146,0.2146,0.2145,0,0,0,0,0,0,0,0,0,0,0,0,0,0.2179,0.2179,0.217,0.217,0.217,0.2147,0.2146,0.2145,0.2139,0.2139,0.214,0.214,0.2146,0.2146,0.2145,0,0,0,0,0,0,0,0,0,0,0,0,0,0.2164,0.2179,0.217,0.2167,0.2166,0.2147,0.2146,0.2145,0.2138,0.2139,0.214,0.2141,0.2146,0.2146,0.2145,0.2128,0,0,0.2144,0.2144,0,0,0,0,0,0,0,0,0.2165,0.2163,0.2167,0.2167,0.2167,0.215,0.2152,0.2142,0.2138,0.2145,0.214,0.2141,0.2152,0.2151,0.2139,0.2129,0.2129,0.2144,0.2144,0.2144,0.2143,0,0,0,0,0,0,0,0.2166,0.2164,0.2157,0.2167,0.2167,0.2157,0.2155,0.2149,0.2142,0.2144,0.2145,0.2148,0.2152,0.214,0.2139,0.2129,0.2144,0.2144,0.2143,0.2143,0.2179,0.218,0,0,0,0,0,0,0.2177,0.2165,0.2158,0.2156,0.2172,0.2157,0.2155,0.2151,0.2142,0.2142,0.2148,0.2148,0.214,0.214,0.214,0.2199,0.2144,0.2143,0.2143,0.2178,0.2179,0.2181,0,0,0,0,0,0,0.2177,0.2177,0.2159,0.2164,0.2161,0.2156,0.2152,0.2151,0.215,0.2145,0.2145,0.2151,0.214,0.214,0.2165,0.2197,0.2143,0.2143,0.2176,0.2178,0.218,0.2268,0,0,0,0,0,0,0.2178,0.2176,0.2187,0.2164,0.2162,0.2157,0.2152,0.215,0.2152,0.2152,0.2147,0.2147,0.2141,0.2165,0.2164,0.2195,0.2142,0.2175,0.2177,0.2179,0.2263,0.2272,0.228,0,0,0,0,0,0.2178,0.2183,0.2187,0.2187,0.2172,0.2157,0.2154,0.215,0.2152,0.2151,0.2165,0.2148,0.2179,0.2166,0.2164,0.2196,0.2174,0.2177,0.2179,0.2259,0.227,0.228,0,0,0,0,0,0,0.2194,0.2183,0.2186,0.219,0.2182,0.2158,0.2162,0.2155,0.2161,0.2173,0.2163,0.2165,0.2198,0.2181,0.2167,0.2212,0.2173,0.2175,0.2235,0.2245,0.2253,0.2237,0.2142,0,0,0,0,0,0.2203,0.2199,0.2192,0.2192,0.2194,0.2179,0.2177,0.2175,0.2175,0.2177,0.218,0.2188,0.2203,0.2213,0.2216,0.2238,0.2233,0.2256,0.2264,0.2272,0.2257,0.2295,0.2306,0.2189,0.2189,0.2189,0,0,0.2207,0.2202,0.22,0.2195,0.2189,0.2193,0.2179,0.2181,0.2196,0.2178,0.2208,0.2215,0.2214,0.2248,0.2261,0.2243,0.2307,0.2275,0.2282,0.2263,0.2299,0.231,0.232,0.2191,0.2191,0.2191,0,0,0.2211,0.2213,0.2216,0.2211,0.2215,0.2209,0.2214,0.2208,0.2223,0.2251,0.2251,0.2279,0.2291,0.2304,0.2311,0.2361,0.2348,0.2365,0.2398,0.2437,0.2447,0.2455,0.2485,0.2495,0.2372,0.2372,0.2372,0,0.2223,0.2221,0.2214,0.2219,0.2224,0.2219,0.2231,0.224,0.2249,0.227,0.2275,0.2314,0.2318,0.2358,0.2382,0.2381,0.2396,0.2365,0.2449,0.2457,0.2464,0.2492,0.2503,0.2377,0.2376,0.2376,0.2375,0,0.2226,0.2232,0.2232,0.2238,0.2247,0.2249,0.2269,0.2287,0.2311,0.2325,0.2377,0.2393,0.2418,0.2428,0.2423,0.2477,0.2469,0.2457,0.2426,0.2482,0.2507,0.2517,0.2383,0.2382,0.238,0.2379,0,0,0.2225,0.2234,0.2234,0.2238,0.2259,0.2254,0.2301,0.2331,0.2362,0.2394,0.2441,0.2477,0.2492,0.2498,0.2505,0.2529,0.2608,0.2518,0.2518,0.2551,0.2694,0.2582,0.2581,0.2619,0.262,0.2622,0.27,0,0.223,0.2239,0.2251,0.226,0.2268,0.2287,0.2324,0.2359,0.2405,0.245,0.2485,0.2528,0.2521,0.2547,0.258,0.2596,0.2632,0.2587,0.263,0.2631,0.2527,0.2587,0.2352,0.2391,0.2709,0.271,0.2711,0,0.2224,0.2235,0.2253,0.2271,0.2278,0.2295,0.2349,0.2387,0.2459,0.2499,0.2558,0.2583,0.2638,0.262,0.2692,0.2668,0.2688,0.2692,0.2696,0.2557,0.2534,0.2382,0.2395,0.2726,0.2725,0.2724,0.2723,0,0.2204,0.2225,0.2238,0.2241,0.2275,0.2301,0.2334,0.2407,0.2453,0.2539,0.2577,0.2648,0.269,0.2728,0.2747,0.2737,0.2806,0.28,0.2717,0.271,0.2494,0.2464,0.2847,0.2847,0.2847,0.2847,0.2847,0,0.2182,0.2191,0.2228,0.2227,0.2256,0.2299,0.2351,0.2396,0.2486,0.253,0.2607,0.2639,0.2718,0.2762,0.2777,0.277,0.2846,0.2722,0.2721,0.2519,0.2491,0.2757,0.2745,0.285,0.2849,0.2849,0.2848,0,0.2147,0.2169,0.2184,0.2228,0.2241,0.2272,0.2347,0.2382,0.2477,0.2541,0.2569,0.2662,0.2706,0.276,0.2819,0.2795,0.2802,0.2778,0.2527,0.2493,0.2679,0.2671,0.2711,0.2707,0.2704,0.2702,0.27,0,0.2125,0.2125,0.217,0.2179,0.22,0.2249,0.2274,0.237,0.2413,0.2525,0.2542,0.2619,0.2619,0.2671,0.2645,0.2654,0.274,0.2441,0.2365,0.2669,0.2666,0.2662,0.2658,0.2136,0.213,0.2124,0.212,0,0.2088,0.2109,0.2119,0.2138,0.2161,0.2178,0.2231,0.2255,0.2356,0.2387,0.2411,0.2419,0.2469,0.2345,0.2367,0.2344,0.2419,0.2332,0.273,0.2192,0.2129,0.2125,0.214,0.2073,0.2078,0.2081,0.2084,0.2086,0.2058,0.206,0.207,0.2075,0.2099,0.2091,0.2064,0.2105,0.2115,0.2121,0.221,0.214,0.2159,0.2045,0.1983,0.1958,0.2141,0.2048,0.2064,0.2086,0.199,0.1923,0.1812,0.1815,0.1818,0.182,0.1822,0,0.1999,0.2003,0.2002,0.1991,0.1961,0.2017,0.2008,0.194,0.1879,0.1902,0.188,0.1685,0.1587,0.1634,0.1506,0.1507,0.1502,0.1453,0.1423,0.1471,0.1513,0.1387,0.105,0.1048,0.1046,0.1044,0,0,0.1973,0.1944,0.1933,0.1852,0.1845,0.178,0.1749,0.1648,0.1617,0.1489,0.1431,0.1504,0.156,0.1275,0.1238,0.1119,0.1291,0.1073,0.1691,0.1702,0.1742,0.1852,0.1711,0,0,0,0,0]},{"header":{"parameterUnit":"m.s-1","parameterCategory":2,"la1":30.2991,"la2":30.254,"lo1":-89.0895,"lo2":-89.0444,"dy":0.0017,"dx":0.0017,"nx":28,"ny":28,"refTime":"2024-12-14T03:00:00:Z","depth":"2","parameterNumber":3,"parameterNumberName":"V-component_of_CURRENTS"},"data":[0,0,0,0,0,0,0,0,0,0,0,0,0,0,0,0,0,0,0,0,0,0,0,0,0,0,0,0,0,0,0,0,0,0,0,0,0,0,0,0,0,0,0,0,0,0,0,0,0,0,0,0,0,0,0,0,0,0,0.0174,0.0174,0,0.019,0.019,0.019,0.0178,0.0178,0.0177,0.0177,0.0166,0.0166,0.0166,0,0,0,0,0,0,0,0,0,0,0,0,0,0.0127,0.0128,0.0174,0.0174,0.0175,0.019,0.019,0.019,0.0178,0.0178,0.0177,0.0177,0.0166,0.0166,0.0166,0,0,0,0,0,0,0,0,0,0,0,0,0,0.0143,0.0128,0.0174,0.0172,0.0173,0.019,0.019,0.019,0.0178,0.0178,0.0177,0.0177,0.0166,0.0166,0.0166,0.0175,0,0,0.0166,0.0166,0,0,0,0,0,0,0,0,0.0142,0.0145,0.0172,0.0173,0.0173,0.0183,0.0169,0.0184,0.0178,0.0174,0.0177,0.0177,0.0171,0.0171,0.0172,0.0175,0.0174,0.0166,0.0166,0.0166,0.0166,0,0,0,0,0,0,0,0.0141,0.0144,0.0178,0.0173,0.0173,0.0169,0.017,0.0172,0.0173,0.0174,0.0174,0.0179,0.0171,0.0172,0.0172,0.0174,0.0166,0.0166,0.0166,0.0166,0.0188,0.0189,0,0,0,0,0,0,0.0145,0.0143,0.0177,0.0179,0.0159,0.017,0.0172,0.0179,0.0173,0.0173,0.018,0.0179,0.0172,0.0172,0.0171,0.0191,0.0166,0.0166,0.0166,0.0187,0.0188,0.0189,0,0,0,0,0,0,0.0144,0.0148,0.0177,0.0163,0.0166,0.0172,0.0179,0.0179,0.0179,0.0178,0.0177,0.018,0.0172,0.0171,0.0178,0.019,0.0166,0.0166,0.0187,0.0188,0.0188,0.0225,0,0,0,0,0,0,0.0143,0.0147,0.0149,0.0163,0.0167,0.0193,0.018,0.018,0.0185,0.0184,0.0178,0.0177,0.0172,0.0178,0.0178,0.019,0.0166,0.0186,0.0187,0.0188,0.0223,0.0227,0.0231,0,0,0,0,0,0.0141,0.0155,0.0149,0.0153,0.0171,0.0194,0.0196,0.0196,0.0185,0.0193,0.0187,0.0177,0.0185,0.0179,0.0178,0.0191,0.0185,0.0187,0.0188,0.0222,0.0226,0.0231,0,0,0,0,0,0,0.0135,0.0156,0.015,0.0168,0.018,0.0193,0.0205,0.0198,0.0199,0.0196,0.0186,0.0185,0.0196,0.0188,0.0181,0.02,0.0183,0.0184,0.0208,0.0213,0.0217,0.0236,0.0166,0,0,0,0,0,0.0134,0.0152,0.0165,0.018,0.0189,0.0193,0.02,0.02,0.0206,0.0206,0.0199,0.0196,0.0202,0.0203,0.0205,0.0215,0.0202,0.0222,0.0226,0.0229,0.0245,0.0234,0.0239,0.0193,0.0193,0.0193,0,0,0.0138,0.015,0.016,0.0179,0.019,0.0215,0.0196,0.0215,0.0228,0.0205,0.0217,0.0209,0.0208,0.0221,0.0225,0.0216,0.0232,0.0231,0.0233,0.0248,0.0236,0.0241,0.0245,0.0194,0.0194,0.0194,0,0,0.0164,0.0165,0.0191,0.0206,0.0225,0.023,0.0235,0.0246,0.0243,0.0253,0.0242,0.0243,0.0244,0.025,0.0252,0.0278,0.0253,0.0273,0.0308,0.0298,0.0301,0.0305,0.0281,0.0282,0.0274,0.0274,0.0274,0,0.0164,0.0199,0.0201,0.0232,0.0252,0.0239,0.0273,0.0273,0.0279,0.0288,0.0262,0.0274,0.0262,0.0293,0.0298,0.0287,0.0272,0.029,0.0303,0.0306,0.0308,0.0284,0.0284,0.0276,0.0276,0.0276,0.0275,0,0.0217,0.024,0.0261,0.0295,0.0311,0.034,0.0346,0.0352,0.0339,0.034,0.0354,0.0333,0.0342,0.0334,0.0323,0.0343,0.0322,0.0308,0.0292,0.0315,0.0287,0.0287,0.0279,0.0278,0.0277,0.0277,0,0,0.0234,0.0287,0.0294,0.0323,0.0349,0.0374,0.0396,0.0423,0.0451,0.0427,0.0455,0.0445,0.0424,0.0426,0.0404,0.0393,0.0384,0.036,0.0359,0.0338,0.0352,0.0334,0.0331,0.0369,0.0369,0.037,0.032,0,0.0276,0.0347,0.0357,0.042,0.046,0.0461,0.0488,0.0505,0.0507,0.0527,0.0497,0.0512,0.0461,0.0462,0.0443,0.0408,0.0387,0.0398,0.0332,0.033,0.0312,0.0333,0.0343,0.03,0.0319,0.0319,0.0319,0,0.0329,0.0369,0.0438,0.0496,0.0514,0.0542,0.0594,0.0619,0.0638,0.0639,0.0637,0.0608,0.0592,0.0537,0.0479,0.0487,0.0425,0.0385,0.0381,0.0358,0.0313,0.0282,0.0298,0.0319,0.0319,0.0319,0.0319,0,0.036,0.0428,0.0485,0.0508,0.0565,0.0591,0.0619,0.0654,0.0693,0.0709,0.073,0.0698,0.0685,0.0609,0.0508,0.0494,0.0438,0.0405,0.0328,0.0325,0.0319,0.0316,0.0361,0.0361,0.0361,0.0361,0.0362,0,0.0412,0.0458,0.0505,0.0541,0.0611,0.0632,0.0705,0.0732,0.0777,0.0837,0.0785,0.0814,0.0702,0.0648,0.0543,0.044,0.0457,0.0345,0.0319,0.033,0.0328,0.0337,0.0335,0.0359,0.036,0.036,0.0361,0,0.0447,0.0477,0.0547,0.0609,0.0631,0.0682,0.0763,0.0822,0.0849,0.0922,0.0926,0.0907,0.0838,0.0714,0.06,0.0494,0.0391,0.0345,0.036,0.0337,0.0271,0.0272,0.0257,0.0256,0.0255,0.0255,0.0254,0,0.0479,0.0517,0.0594,0.0639,0.0669,0.0741,0.08,0.0855,0.0924,0.0984,0.1027,0.098,0.0962,0.0781,0.0603,0.0422,0.0393,0.0301,0.0277,0.0289,0.0265,0.0266,0.0267,0.0272,0.0272,0.0272,0.0271,0,0.0534,0.0551,0.0606,0.0696,0.0762,0.0844,0.0928,0.0993,0.1062,0.1114,0.1174,0.1159,0.0998,0.0829,0.0583,0.0458,0.033,0.0289,0.0311,0.03,0.03,0.0277,0.0279,0.0269,0.0269,0.0269,0.027,0.027,0.057,0.0611,0.0676,0.0762,0.0839,0.0936,0.1005,0.1094,0.1194,0.1254,0.1259,0.1207,0.1047,0.0715,0.053,0.0314,0.0328,0.0231,0.0233,0.0235,0.0249,0.0248,0.0209,0.0209,0.0209,0.0209,0.0209,0,0.062,0.0663,0.0742,0.084,0.0921,0.0957,0.1087,0.1138,0.1243,0.1267,0.1289,0.109,0.0923,0.0713,0.0406,0.0241,0.0226,0.0167,0.0191,0.0195,0.0198,0.0211,0.016,0.016,0.0159,0.0158,0,0,0.0648,0.072,0.0754,0.0885,0.0953,0.1055,0.1124,0.1194,0.1225,0.1221,0.117,0.114,0.0931,0.0694,0.0492,0.0316,0.028,0.0272,0.033,0.0387,0.0391,0.0258,0.0286,0,0,0,0,0]}],[{"header":{"parameterUnit":"m.s-1","parameterCategory":2,"la1":30.2991,"la2":30.254,"lo1":-89.0895,"lo2":-89.0444,"dy":0.0017,"dx":0.0017,"nx":28,"ny":28,"refTime":"2024-12-14T03:00:00:Z","depth":"4","parameterNumber":2,"parameterNumberName":"U-component_of_CURRENTS"},"data":[0,0,0,0,0,0,0,0,0,0,0,0,0,0,0,0,0,0,0,0,0,0,0,0,0,0,0,0,0,0,0,0,0,0,0,0,0,0,0,0,0,0,0,0,0,0,0,0,0,0,0,0,0,0,0,0,0,0,0.1242,0.1242,0,0.126,0.126,0.126,0.1294,0.1295,0.1295,0.1296,0.1348,0.1349,0.135,0,0,0,0,0,0,0,0,0,0,0,0,0,0.1236,0.1236,0.1242,0.1242,0.1243,0.126,0.126,0.126,0.1294,0.1295,0.1296,0.1297,0.1348,0.1349,0.135,0,0,0,0,0,0,0,0,0,0,0,0,0,0.1244,0.1236,0.1242,0.1263,0.1265,0.126,0.126,0.126,0.1294,0.1295,0.1296,0.1297,0.1348,0.1349,0.135,0.1332,0,0,0.1353,0.1353,0,0,0,0,0,0,0,0,0.1243,0.1243,0.1259,0.1261,0.1264,0.1277,0.1277,0.1286,0.1293,0.1281,0.1296,0.1298,0.1328,0.1331,0.1329,0.1334,0.1336,0.1353,0.1353,0.1354,0.1354,0,0,0,0,0,0,0,0.1243,0.1243,0.1247,0.126,0.1262,0.1271,0.1273,0.1279,0.1297,0.1282,0.1285,0.1289,0.1329,0.1327,0.133,0.1337,0.1353,0.1354,0.1354,0.1355,0.144,0.1441,0,0,0,0,0,0,0.1242,0.1242,0.1247,0.1248,0.1258,0.127,0.1273,0.127,0.1296,0.1301,0.1288,0.1291,0.1325,0.1329,0.1332,0.1402,0.1354,0.1355,0.1355,0.1438,0.144,0.1442,0,0,0,0,0,0,0.1242,0.1242,0.1246,0.1247,0.1249,0.1269,0.1266,0.127,0.1297,0.1301,0.1307,0.1315,0.1326,0.1331,0.1369,0.1401,0.1355,0.1356,0.1436,0.1439,0.1441,0.1485,0,0,0,0,0,0,0.1241,0.1241,0.1253,0.1247,0.1249,0.126,0.1266,0.127,0.1297,0.1301,0.1325,0.1329,0.1328,0.1368,0.137,0.1402,0.1357,0.1434,0.1437,0.144,0.1482,0.1489,0.1495,0,0,0,0,0,0.1241,0.1244,0.1253,0.1255,0.1259,0.1261,0.1263,0.128,0.1297,0.1309,0.1335,0.133,0.139,0.1369,0.1372,0.1405,0.1432,0.1436,0.144,0.1479,0.1487,0.1495,0,0,0,0,0,0,0.1249,0.1247,0.1258,0.1262,0.1272,0.1268,0.1284,0.1294,0.1322,0.1338,0.1344,0.135,0.1398,0.1395,0.1373,0.1441,0.1413,0.1417,0.1442,0.145,0.1457,0.1445,0.1358,0,0,0,0,0,0.1255,0.1259,0.1261,0.1269,0.1276,0.1287,0.1296,0.1307,0.1323,0.1337,0.1355,0.1382,0.1409,0.1426,0.1443,0.1473,0.1473,0.15,0.1506,0.1512,0.1506,0.1543,0.1552,0.1454,0.1454,0.1454,0,0,0.1262,0.1263,0.1267,0.1273,0.1284,0.1293,0.1296,0.1315,0.1335,0.1337,0.1383,0.1406,0.1423,0.1463,0.1484,0.1469,0.1542,0.1517,0.1521,0.1512,0.1547,0.1557,0.1565,0.1457,0.1456,0.1456,0,0,0.1266,0.128,0.1284,0.1293,0.1312,0.1316,0.1329,0.1342,0.1366,0.1402,0.1419,0.146,0.1496,0.1514,0.1527,0.158,0.1578,0.1599,0.1621,0.1658,0.1665,0.1672,0.169,0.1698,0.1601,0.1601,0.1601,0,0.1282,0.128,0.1288,0.1295,0.1308,0.133,0.1342,0.1363,0.1392,0.1416,0.1428,0.1502,0.1517,0.1565,0.1588,0.1594,0.1611,0.1587,0.1665,0.1672,0.1678,0.1695,0.1703,0.1603,0.1603,0.1603,0.1602,0,0.1274,0.1292,0.1298,0.1315,0.133,0.1345,0.137,0.1402,0.1438,0.146,0.1527,0.1554,0.1597,0.1616,0.1618,0.1677,0.1674,0.167,0.164,0.169,0.1705,0.1713,0.1607,0.1606,0.1605,0.1605,0,0,0.1263,0.1289,0.1297,0.1311,0.1344,0.135,0.1395,0.1432,0.1472,0.1518,0.1569,0.1623,0.165,0.1666,0.1685,0.1714,0.1774,0.1715,0.1716,0.1724,0.1852,0.1717,0.1713,0.1792,0.1794,0.1795,0.1846,0,0.1264,0.1278,0.1294,0.1324,0.1334,0.1372,0.1409,0.1452,0.1502,0.1558,0.1605,0.1663,0.1667,0.1703,0.1735,0.1769,0.1797,0.176,0.1808,0.1809,0.1676,0.1718,0.18,0.1851,0.1853,0.1854,0.1855,0,0.1247,0.1261,0.1285,0.1329,0.1339,0.1368,0.1434,0.1472,0.1552,0.1595,0.1661,0.17,0.1763,0.1757,0.1835,0.1818,0.1839,0.1854,0.1856,0.1715,0.1688,0.1791,0.1869,0.1868,0.1867,0.1866,0.1865,0,0.1215,0.1256,0.1276,0.1289,0.1341,0.1375,0.1417,0.1492,0.1534,0.1631,0.1671,0.175,0.1801,0.1845,0.1882,0.1874,0.1951,0.1942,0.1837,0.1828,0.1914,0.1906,0.1989,0.1989,0.1989,0.1989,0.1989,0,0.1188,0.121,0.1272,0.128,0.1322,0.1369,0.1429,0.1486,0.157,0.1612,0.1697,0.1734,0.183,0.1879,0.1902,0.1887,0.1974,0.1838,0.1831,0.1933,0.1926,0.192,0.1911,0.1991,0.199,0.199,0.199,0,0.114,0.1179,0.121,0.1278,0.1306,0.1341,0.143,0.1465,0.1559,0.1618,0.1651,0.1749,0.1806,0.1872,0.1944,0.1898,0.1906,0.188,0.1982,0.1981,0.1754,0.1747,0.1761,0.1757,0.1753,0.175,0.1747,0,0.1109,0.1121,0.1203,0.1224,0.1261,0.1323,0.1357,0.1455,0.1486,0.1601,0.161,0.1706,0.1754,0.1744,0.183,0.1858,0.1839,0.1828,0.1783,0.1738,0.1731,0.173,0.1729,0.1741,0.174,0.1739,0.1738,0,0.1054,0.1101,0.1129,0.1176,0.1218,0.1246,0.1306,0.1317,0.1413,0.1514,0.1523,0.1551,0.1606,0.1655,0.1691,0.171,0.1825,0.1789,0.1797,0.1754,0.1714,0.1711,0.1714,0.1726,0.1727,0.1729,0.1729,0,0.1026,0.1035,0.1083,0.1113,0.1156,0.1147,0.1188,0.1208,0.1251,0.1371,0.1373,0.1472,0.1576,0.1579,0.1613,0.1618,0.1594,0.1537,0.1557,0.1572,0.1488,0.1409,0.1318,0,0,0,0,0,0.0989,0.0987,0.101,0.1023,0.1057,0.1081,0.1136,0.1175,0.127,0.1232,0.1296,0.1334,0.1372,0.1434,0.1404,0.1546,0.1612,0.1504,0.1558,0.1655,0.1669,0.1588,0,0,0,0,0,0,0.0961,0.0985,0.0984,0.0942,0.0933,0.0949,0.098,0.104,0.1022,0.113,0.116,0.1248,0.1315,0.1377,0.1379,0.1399,0.1401,0.1578,0.1574,0.1646,0.166,0.1672,0.1593,0,0,0,0,0]},{"header":{"parameterUnit":"m.s-1","parameterCategory":2,"la1":30.2991,"la2":30.254,"lo1":-89.0895,"lo2":-89.0444,"dy":0.0017,"dx":0.0017,"nx":28,"ny":28,"refTime":"2024-12-14T03:00:00:Z","depth":"4","parameterNumber":3,"parameterNumberName":"V-component_of_CURRENTS"},"data":[0,0,0,0,0,0,0,0,0,0,0,0,0,0,0,0,0,0,0,0,0,0,0,0,0,0,0,0,0,0,0,0,0,0,0,0,0,0,0,0,0,0,0,0,0,0,0,0,0,0,0,0,0,0,0,0,0,0,0.022,0.022,0,0.0234,0.0235,0.0235,0.0234,0.0234,0.0233,0.0233,0.0245,0.0245,0.0246,0,0,0,0,0,0,0,0,0,0,0,0,0,0.0174,0.0175,0.022,0.022,0.0221,0.0234,0.0235,0.0235,0.0234,0.0234,0.0233,0.0233,0.0245,0.0245,0.0246,0,0,0,0,0,0,0,0,0,0,0,0,0,0.0191,0.0175,0.022,0.0222,0.0223,0.0234,0.0235,0.0235,0.0234,0.0234,0.0233,0.0233,0.0245,0.0245,0.0246,0.0255,0,0,0.0248,0.0248,0,0,0,0,0,0,0,0,0.019,0.0193,0.0222,0.0222,0.0223,0.0233,0.0222,0.0242,0.0234,0.0229,0.0233,0.0233,0.0241,0.0242,0.0244,0.0255,0.0256,0.0248,0.0248,0.0249,0.0249,0,0,0,0,0,0,0,0.0189,0.0192,0.0225,0.0222,0.0223,0.0216,0.0219,0.0226,0.0236,0.0229,0.0229,0.0232,0.0241,0.0244,0.0245,0.0256,0.0248,0.0249,0.0249,0.0249,0.0287,0.0288,0,0,0,0,0,0,0.019,0.0191,0.0225,0.0226,0.0206,0.0217,0.022,0.0229,0.0236,0.0237,0.0232,0.0232,0.0243,0.0244,0.0245,0.0277,0.0249,0.0249,0.025,0.0286,0.0287,0.0288,0,0,0,0,0,0,0.0189,0.0193,0.0224,0.0209,0.0212,0.0219,0.0229,0.023,0.0235,0.0238,0.0239,0.0237,0.0243,0.0244,0.0261,0.0277,0.025,0.025,0.0286,0.0287,0.0287,0.0328,0,0,0,0,0,0,0.0188,0.0193,0.02,0.0209,0.0213,0.0239,0.0229,0.023,0.0237,0.0237,0.0243,0.0243,0.0243,0.026,0.0261,0.0277,0.0251,0.0285,0.0286,0.0287,0.0325,0.033,0.0333,0,0,0,0,0,0.0186,0.0203,0.02,0.0204,0.0223,0.024,0.0242,0.0244,0.0238,0.0247,0.025,0.0243,0.0268,0.0261,0.0263,0.0279,0.0284,0.0286,0.0287,0.0324,0.0329,0.0333,0,0,0,0,0,0,0.0186,0.0205,0.0202,0.0223,0.0232,0.024,0.0251,0.0247,0.0257,0.0258,0.0254,0.0256,0.0275,0.0271,0.0263,0.0292,0.0274,0.0275,0.0301,0.0306,0.031,0.0313,0.0251,0,0,0,0,0,0.0189,0.0207,0.0218,0.0233,0.0241,0.0244,0.025,0.0253,0.0261,0.0265,0.0268,0.0272,0.0281,0.0289,0.0295,0.0313,0.0296,0.0323,0.0327,0.033,0.0334,0.0324,0.0327,0.0292,0.0292,0.0292,0,0,0.0193,0.0205,0.0215,0.0234,0.0242,0.0262,0.0248,0.0264,0.028,0.0265,0.0289,0.0287,0.0289,0.031,0.0318,0.031,0.0329,0.0332,0.0335,0.0337,0.0326,0.0329,0.0332,0.0293,0.0293,0.0293,0,0,0.0213,0.0222,0.0244,0.0256,0.0273,0.0278,0.0283,0.0295,0.03,0.032,0.0313,0.0321,0.0335,0.0341,0.0345,0.0374,0.0349,0.0374,0.0401,0.0391,0.0394,0.0396,0.037,0.0369,0.0378,0.0378,0.0378,0,0.0216,0.0247,0.0252,0.0277,0.0292,0.0287,0.0314,0.0321,0.0335,0.0346,0.0333,0.0352,0.0351,0.0377,0.0386,0.0383,0.0366,0.0384,0.0396,0.0398,0.04,0.0372,0.0371,0.038,0.038,0.038,0.0379,0,0.0255,0.0279,0.0295,0.0325,0.034,0.0364,0.0374,0.0387,0.0388,0.0394,0.0414,0.0407,0.0418,0.0418,0.0412,0.0428,0.0408,0.0401,0.0384,0.0406,0.0375,0.0373,0.0383,0.0382,0.0382,0.0381,0,0,0.0267,0.0314,0.032,0.0344,0.037,0.0389,0.0416,0.0443,0.0467,0.0464,0.0487,0.0494,0.0481,0.0483,0.0472,0.0463,0.0454,0.0439,0.0438,0.0413,0.042,0.0386,0.0381,0.0449,0.045,0.045,0.0391,0,0.0296,0.0352,0.0367,0.0418,0.0449,0.0457,0.0485,0.0506,0.0516,0.0535,0.0521,0.0537,0.0509,0.0513,0.05,0.0471,0.0453,0.047,0.0403,0.0401,0.0369,0.0379,0.045,0.0389,0.0389,0.0389,0.0388,0,0.0332,0.0366,0.0423,0.0474,0.0488,0.0516,0.0563,0.0589,0.061,0.0616,0.0618,0.0601,0.0592,0.0558,0.0511,0.0522,0.0474,0.0441,0.0438,0.0393,0.0365,0.0365,0.0385,0.0385,0.0385,0.0386,0.0386,0,0.0345,0.0406,0.0454,0.0472,0.0526,0.0554,0.0584,0.0617,0.0651,0.0667,0.068,0.066,0.0653,0.0595,0.052,0.0517,0.0454,0.0441,0.0361,0.0357,0.0386,0.0385,0.0399,0.0399,0.04,0.04,0.04,0,0.0375,0.0414,0.0467,0.0495,0.0556,0.0584,0.0647,0.0671,0.071,0.0749,0.0723,0.0733,0.0663,0.0614,0.0536,0.0441,0.0463,0.0364,0.0344,0.0403,0.0404,0.0384,0.0383,0.0397,0.0398,0.0398,0.0399,0,0.0387,0.042,0.0479,0.0542,0.0566,0.0611,0.069,0.0735,0.0763,0.0807,0.0812,0.0794,0.073,0.064,0.0547,0.0468,0.0377,0.0335,0.0396,0.038,0.0279,0.0281,0.0241,0.0239,0.0238,0.0237,0.0236,0,0.0401,0.0432,0.0508,0.0546,0.0579,0.0649,0.0701,0.0757,0.0804,0.084,0.0859,0.0816,0.0781,0.0623,0.053,0.0371,0.0344,0.0286,0.0288,0.0281,0.0265,0.0269,0.0273,0.0234,0.0233,0.0233,0.0233,0,0.0422,0.0447,0.0493,0.0569,0.063,0.0702,0.0776,0.0811,0.087,0.0891,0.0887,0.0808,0.0733,0.0617,0.0493,0.0381,0.0321,0.0272,0.0274,0.0274,0.0272,0.0258,0.0263,0.0228,0.0229,0.0229,0.023,0,0.0435,0.0465,0.0521,0.0589,0.0664,0.0734,0.0775,0.0826,0.0873,0.0904,0.09,0.082,0.0786,0.0621,0.0511,0.0394,0.0359,0.0308,0.0307,0.0311,0.0346,0.0354,0.032,0,0,0,0,0,0.0447,0.0479,0.0539,0.0612,0.0686,0.0732,0.0818,0.0854,0.0901,0.0895,0.0899,0.0822,0.0664,0.0614,0.0489,0.0478,0.0336,0.0326,0.0276,0.0202,0.0208,0.0234,0,0,0,0,0,0,0.0453,0.0507,0.0534,0.0619,0.067,0.0756,0.0812,0.0845,0.0848,0.087,0.0797,0.0766,0.0625,0.0727,0.0477,0.0447,0.0391,0.0263,0.0259,0.0199,0.0204,0.0209,0.0237,0,0,0,0,0]}]]